If you wish to contribute or participate in the discussions about articles you are invited to join SKYbrary as a registered user

 Actions

Piloto Civil N. Fernández Airport

From SKYbrary Wiki

SAWG
Airport
ICAO: SAWG – IATA: RGL
Summary
Name Piloto Civil N. Fernández Airport
Region South America and Caribbean
Territory Argentina AR.gif
Location Rio Gallegos, Santa Cruz
Serving Rio Gallegos
Elevation 18.593 m
61 ft
61 ft18.593 m
Type medium airport
Coordinates 51° 36' 31.95" S, 69° 18' 45.49" W
Runways
Designator Length Width Surface ROPS
7/25 3549 m11,643.701 ft
45 m147.638 ft
CON yes/yes


METAR
Observation SAWG 211600Z 20015KT 9999 FEW035 23/08 Q1023
Station Rio Gallegos Aerodrome
Date/Time 21 February 2020 16:00:00
Wind direction 200°
Wind speed 15 kts
Lowest cloud amount few clouds
Temperature 23°C
Dew point 8°C
Humidity 38%
QNH 1023 hPa
Weather condition n/a

Airport 2.5km1.35 nm
2,500 m
8,202.1 ft
west of Rio Gallegos, Santa Cruz Province, Argentina

Climatology

Cold semi-arid climate (Köppen climate classification BSk).

Maps

Terrain

Loading map...

Airport Layout

Loading map...


Accidents & Serious Incidents at or in vicinity of SAWG

None on SKYbrary